Find Starlink 33547

NORAD ID: 62283 Int'l Des: 2024-237 Owner: SPXS Country: US Constellation: starlink operational
LEOCIRCULAR

現在のビュー

3D地球を読み込み中...

About Starlink 33547

Starlink 33547 (NORAD 62283) is a starlink constellation satellite (v2 mini) launched Dec 8, 2024 by SPXS of US. It operates in LEO, CIRCULAR orbit with a mass of 530.00 kg.

Starlink 33547について

説明を読み込み中...

次回通過

Passes for default location (London). Set your location on the main map for personalized predictions.

高度履歴

Loading altitude history...

軌道要素

1 62283U 24237S 26175.82933724 .00033065 00000-0 12051-2 0 9996
2 62283 43.0013 320.3827 0001773 276.6387 83.4263 15.27595885 87709
Epoch: Jun 24, 2026 • Age: 24 hours

現在のステータス

高度 482.2 km
速度 7.63 km/s
衛星直下点 1.20°N, 110.42°E
打ち上げ日 Dec 8, 2024
運用期間 1.5 years
タイプ internet

技術仕様

分類 Payload
質量 530.00 kg
乾燥質量 500.00 kg
総質量 530.00 kg
長さ 0.30 m
直径 4.10 m
スパン 29.00 m
形状 Box + pan
製造者 SPXS
バスタイプ Starlink V2MO
フェーズステータス In Orbit
所有者/国 SPXS/US

Most Searched